Location: Bartshausen
(51.8454°N, 9.8167°E)
Time: 08:43:21
(UTC+00:00)

Cosmos 2242 Rocket - Pass Details

Date: 08 November 2025
Orbit: 614 x 644 km, 82.5° (Epoch: 11 December)

Event Time Altitude Azimuth Distance (km) Brightness Sun altitude
Rises 05:28:27 0° 190° (S) 2,873 7.1 -9.4°
Reaches altitude 10° 05:30:39 10° 191° (S) 1,974 6.2 -9.1°
Maximum altitude 05:35:01 85° 279° (W) 627 3.5 -8.4°
Drops below altitude 10° 05:39:28 10° 10° (N) 2,000 6.1 -7.8°
Sets 05:41:43 0° 11° (N) 2,916 6.9 -7.4°
